Location: Rumah Apan
(2.7833°N, 113.9500°E)
Time: 22:50:39
(UTC+00:00)

HJ-1C - Pass Details

Date: 25 July 2021
Orbit: 423 x 438 km, 97.1° (Epoch: 22 September)

Event Time Altitude Azimuth Distance (km) Brightness Sun altitude
Exits shadow 11:47:42 24° 172° (S) 920 4.7 -17.1°
Maximum altitude 11:49:30 84° 258° (WSW) 430 3.2 -17.5°
Drops below altitude 10° 11:52:44 10° 348° (NNW) 1,508 6.5 -18.3°
Sets 11:54:44 0° 348° (NNW) 2,373 7.5 -18.7°
